Regional Weather Roundup
Issued by NWS Little Rock, AR

Home | Current Version | Previous Version | Text Only | Print | Product List | Glossary Off
Versions: 1 2 3 4 5 6 7 8 9 10 11 12 13 14 15 16 17 18 19 20 21 22 23 24 25 26 27 28 29 30 31 32 33 34 35 36 37 38 39 40 41 42 43 44 45 46 47 48 49 50

000
ASUS44 KLZK 312105
RWRLZK

WEATHER ROUNDUP FOR ARKANSAS
NATIONAL WEATHER SERVICE LITTLE ROCK AR
300 PM CST SAT JAN 31 2015

NOTE: "FAIR" INDICATES FEW OR NO CLOUDS BELOW 12,000 FEET WITH NO
SIGNIFICANT WEATHER AND/OR OBSTRUCTIONS TO VISIBILITY.

ARZ001-003-010-029-312200-
NORTHWEST ARKANSAS

CITY           SKY/WX    TMP DP  RH WIND       PRES   REMARKS
FAYETTEVILLE   CLOUDY    46  26  45 S10       30.09F
FORT SMITH     CLOUDY    51  27  39 SE9       30.12F
HARRISON       CLOUDY    46  23  40 SE12      30.12F
BENTONVILLE    CLOUDY    48  23  37 S10G16    30.10F
ROGERS         CLOUDY    48  24  39 SE9       30.09F
SILOAM SPGS    CLOUDY   N/A N/A N/A S13       30.10S
HIGHFILL       CLOUDY    48  25  40 S13       30.08F
SPRINGDALE     PTSUNNY   48  25  40 SE8       30.10F
$$

ARZ004-005-016-312200-
NORTH CENTRAL ARKANSAS

CITY           SKY/WX    TMP DP  RH WIND       PRES   REMARKS
BATESVILLE     CLOUDY    45  27  49 E9        30.21F
FLIPPIN        CLOUDY    46  21  36 SE7       30.16F
MTN HOME       CLOUDY    46  24  42 E9        30.15F
$$

ARZ040-041-312200-
WEST CENTRAL ARKANSAS

CITY           SKY/WX    TMP DP  RH WIND       PRES   REMARKS
MENA           CLOUDY    52  30  43 SE5       30.12F
MOUNT IDA      CLOUDY    49  27  42 SE7       30.12F
$$

ARZ009-017-025-026-028-312200-
NORTHEAST ARKANSAS

CITY           SKY/WX    TMP DP  RH WIND       PRES   REMARKS
CORNING        FAIR      46  27  46 SE6       30.26F
JONESBORO      CLOUDY    44  27  51 E6        30.24F
NEWPORT        CLOUDY    46  27  48 SE7       30.24F
WALNUT RIDGE   CLOUDY    45  25  45 SE6       30.23F
BLYTHEVILLE    CLOUDY    46  25  43 SE5       30.26F
$$

ARZ022-023-033-042-044-312200-
CENTRAL ARKANSAS

CITY           SKY/WX    TMP DP  RH WIND       PRES   REMARKS
LITTLE ROCK    CLOUDY    48  25  40 SE7       30.21F
N LITTLE ROCK  CLOUDY    45  31  58 E7        30.21F
JACKSONVILLE   CLOUDY    47  28  47 E6        30.20F
SEARCY         CLOUDY    46  28  49 SE6       30.23F
HOT SPRINGS    CLOUDY    48  27  44 CALM      30.17F
RUSSELLVILLE   CLOUDY    47  29  49 E7        30.17F
CLINTON        PTSUNNY   45  28  53 E3        30.21F
$$

ARZ036-312200-
EAST ARKANSAS

CITY           SKY/WX    TMP DP  RH WIND       PRES   REMARKS
WEST MEMPHIS   CLOUDY    45  26  47 E6        30.24F
$$

ARZ050-053-066-070-073-312200-
SOUTHWEST ARKANSAS

CITY           SKY/WX    TMP DP  RH WIND       PRES   REMARKS
ARKADELPHIA    FAIR      50  32  50 CALM      30.18F
CAMDEN         CLOUDY    54  28  37 MISG      30.18F
TEXARKANA      CLOUDY    53  31  42 SE8       30.15F
EL DORADO      CLOUDY    53  30  41 E9        30.16F
DE QUEEN       CLOUDY    53  31  42 SE10      30.12F
$$

ARZ056-057-069-312200-
SOUTHEAST ARKANSAS

CITY           SKY/WX    TMP DP  RH WIND       PRES   REMARKS
PINE BLUFF     CLOUDY    48  29  47 E9        30.21F
STUTTGART      CLOUDY    45  27  49 E6        30.22F
MONTICELLO     PTSUNNY   54  28  36 SE7       30.18F

$$





USA.gov is the U.S. government's official web portal to all federal, state and local government web resources and services.